KLE YSHL-YSHL

Flight info

Callsign KLE
Flight time N/A
Altitude 2500
Route YSHL TWRN PRT PAA LRF JIBN YSHL
Aircraft P28A/L-S/EB1

Departure

Time 2026-04-30 12:27
Airport Shellharbour Airport (YSHL)

Arrival

Time N/A
Airport Shellharbour Airport (YSHL)
Time Latitude Longitude Altitude Speed Heading
2026-04-30 12:21 -34.55863 150.78891 30 ft 0 kts 352°
2026-04-30 12:23 -34.55849 150.78885 30 ft 6 kts 311°
2026-04-30 12:23 -34.55846 150.78859 30 ft 0 kts 258°
2026-04-30 12:24 -34.55847 150.78854 30 ft 3 kts 258°
2026-04-30 12:24 -34.55855 150.78829 30 ft 6 kts 214°
2026-04-30 12:25 -34.55923 150.78840 29 ft 11 kts 169°
2026-04-30 12:25 -34.55992 150.78855 30 ft 9 kts 169°
2026-04-30 12:25 -34.56046 150.78868 31 ft 7 kts 169°
2026-04-30 12:25 -34.56093 150.78878 32 ft 7 kts 169°
2026-04-30 12:26 -34.56154 150.78876 33 ft 11 kts 209°
2026-04-30 12:26 -34.56219 150.78832 33 ft 12 kts 207°
2026-04-30 12:26 -34.56230 150.78783 33 ft 9 kts 349°
2026-04-30 12:26 -34.56053 150.78742 30 ft 51 kts 349°
2026-04-30 12:27 -34.55590 150.78651 126 ft 76 kts 351°
2026-04-30 12:27 -34.55067 150.78586 379 ft 75 kts 353°
2026-04-30 12:27 -34.54566 150.78533 623 ft 71 kts 355°
2026-04-30 12:27 -34.54087 150.78489 898 ft 65 kts 356°
2026-04-30 12:28 -34.53625 150.78414 1079 ft 72 kts 352°
2026-04-30 12:28 -34.53143 150.78327 1344 ft 67 kts 353°
2026-04-30 12:28 -34.52681 150.78245 1601 ft 65 kts 354°
2026-04-30 12:28 -34.52237 150.78136 1803 ft 68 kts 353°
2026-04-30 12:29 -34.51768 150.78047 2015 ft 69 kts 353°
2026-04-30 12:29 -34.51280 150.77925 2245 ft 70 kts 349°
2026-04-30 12:29 -34.50817 150.77772 2485 ft 69 kts 350°
2026-04-30 12:29 -34.50345 150.77658 2697 ft 68 kts 354°
2026-04-30 12:30 -34.49993 150.77578 2981 ft 53 kts 348°
2026-04-30 12:30 -34.49546 150.77456 3099 ft 66 kts 353°
2026-04-30 12:30 -34.49075 150.77369 3274 ft 69 kts 354°